[[{"header":{"parameterUnit":"m.s-1","parameterCategory":1,"la1":30.2991,"la2":30.254,"lo1":-89.0895,"lo2":-89.0444,"dx":0.0017,"dy":0.0017,"nx":28,"ny":28,"refTime":"2022-11-15T09:00:00:Z","depth":0,"parameterNumber":2,"parameterNumberName":"U-component_of_WINDS"},"data":[0,0,0,0,0,0,0,0,0,0,0,0,0,0,0,0,0,0,0,0,0,0,0,0,0,0,0,0,0,0,0,0,0,0,0,0,0,0,0,0,0,0,0,0,0,0,0,0,0,0,0,0,0,0,0,0,0,0,-6.3588,-6.3592,0,-6.3908,-6.3911,-6.3915,-6.3936,-6.3932,-6.3929,-6.3925,-6.4246,-6.4257,-6.4269,0,0,0,0,0,0,0,0,0,0,0,0,0,-6.2987,-6.2998,-6.3588,-6.3592,-6.3596,-6.3907,-6.3911,-6.3916,-6.3937,-6.3932,-6.3928,-6.3924,-6.4242,-6.4256,-6.427,0,0,0,0,0,0,0,0,0,0,0,0,0,-6.3271,-6.3002,-6.3587,-6.3644,-6.3652,-6.3906,-6.3912,-6.3917,-6.3937,-6.3932,-6.3927,-6.3922,-6.4237,-6.4254,-6.4272,-6.4489,0,0,-6.4326,-6.4334,0,0,0,0,0,0,0,0,-6.3255,-6.3293,-6.3632,-6.364,-6.365,-6.3877,-6.3817,-6.4109,-6.3939,-6.3829,-6.3925,-6.3919,-6.4127,-6.4153,-6.4225,-6.4504,-6.4518,-6.4328,-6.4339,-6.4346,-6.4351,0,0,0,0,0,0,0,-6.3235,-6.328,-6.3714,-6.3636,-6.3648,-6.3651,-6.3685,-6.3872,-6.4004,-6.3838,-6.384,-6.3878,-6.4131,-6.4208,-6.4232,-6.4523,-6.4327,-6.4343,-6.4354,-6.4361,-6.4991,-6.4997,0,0,0,0,0,0,-6.3206,-6.3263,-6.3704,-6.3724,-6.3436,-6.3666,-6.3704,-6.3809,-6.4002,-6.4026,-6.3883,-6.3878,-6.418,-6.4212,-6.4244,-6.4507,-6.4346,-6.4363,-6.4373,-6.4985,-6.4993,-6.4999,0,0,0,0,0,0,-6.3193,-6.3245,-6.3691,-6.3494,-6.3551,-6.3682,-6.3799,-6.3818,-6.3895,-6.4036,-6.4058,-6.3937,-6.4177,-6.4219,-6.4427,-6.4518,-6.4371,-6.4387,-6.4978,-6.4988,-6.4996,-6.5036,0,0,0,0,0,0,-6.3176,-6.324,-6.3326,-6.3496,-6.3562,-6.3872,-6.3805,-6.3828,-6.3927,-6.3924,-6.4093,-6.4116,-6.4176,-6.4401,-6.4445,-6.454,-6.4401,-6.4971,-6.4982,-6.4993,-6.5027,-6.5046,-6.5062,0,0,0,0,0,-6.3154,-6.3324,-6.333,-6.3383,-6.3672,-6.3877,-6.3914,-6.3982,-6.3934,-6.4019,-6.4109,-6.411,-6.4502,-6.4422,-6.4472,-6.4574,-6.4965,-6.4979,-6.4992,-6.502,-6.5042,-6.5061,0,0,0,0,0,0,-6.3159,-6.3347,-6.3356,-6.3587,-6.3716,-6.388,-6.399,-6.4004,-6.4148,-6.4139,-6.4215,-6.4253,-6.4458,-6.4538,-6.4445,-6.4792,-6.4728,-6.4752,-6.4732,-6.4754,-6.4771,-6.4745,-6.4416,0,0,0,0,0,-6.3187,-6.3341,-6.3496,-6.3684,-6.3749,-6.3859,-6.3951,-6.3992,-6.4127,-6.4181,-6.4287,-6.4416,-6.4568,-6.4666,-6.4814,-6.5041,-6.5075,-6.5135,-6.5152,-6.5165,-6.5184,-6.5305,-6.5332,-6.5044,-6.5044,-6.5044,0,0,-6.3246,-6.3368,-6.346,-6.3689,-6.3793,-6.3947,-6.3904,-6.407,-6.4183,-6.4206,-6.4408,-6.449,-6.464,-6.4857,-6.4958,-6.493,-6.5272,-6.5183,-6.5192,-6.5204,-6.5322,-6.5349,-6.5373,-6.5053,-6.5052,-6.505,0,0,-6.3431,-6.3542,-6.3708,-6.3815,-6.3975,-6.4046,-6.4086,-6.4249,-6.4305,-6.451,-6.4529,-6.4665,-6.4926,-6.5031,-6.5118,-6.5342,-6.5347,-6.5389,-6.5475,-6.5592,-6.5615,-6.5635,-6.571,-6.5737,-6.5408,-6.5408,-6.5408,0,-6.3483,-6.3718,-6.3792,-6.3957,-6.4054,-6.4085,-6.4252,-6.4351,-6.455,-6.4615,-6.4582,-6.4909,-6.5012,-6.5252,-6.5306,-6.5378,-6.5422,-6.5367,-6.5607,-6.5628,-6.5648,-6.572,-6.5748,-6.5411,-6.5411,-6.5411,-6.541,0,-6.3772,-6.3934,-6.405,-6.4242,-6.4354,-6.4519,-6.4614,-6.4718,-6.475,-6.4824,-6.5031,-6.5156,-6.5328,-6.5389,-6.5422,-6.5633,-6.561,-6.5591,-6.5527,-6.5677,-6.5746,-6.5775,-6.5417,-6.5415,-6.5414,-6.5413,0,0,-6.3966,-6.4198,-6.4238,-6.4325,-6.4504,-6.4629,-6.4794,-6.4965,-6.505,-6.5187,-6.5323,-6.5544,-6.5527,-6.5626,-6.5671,-6.5775,-6.5938,-6.5742,-6.5747,-6.577,-6.6173,-6.6182,-6.6214,-6.5944,-6.595,-6.5955,-6.6159,0,-6.4166,-6.4463,-6.4534,-6.4786,-6.4935,-6.4966,-6.5109,-6.5233,-6.5307,-6.5441,-6.5522,-6.5675,-6.5644,-6.5703,-6.5808,-6.5896,-6.6019,-6.5883,-6.6068,-6.6074,-6.6024,-6.6251,-6.6262,-6.6448,-6.6187,-6.6192,-6.6195,0,-6.444,-6.4583,-6.4851,-6.5008,-6.5073,-6.5201,-6.5361,-6.5491,-6.563,-6.5677,-6.5787,-6.5821,-6.5991,-6.5922,-6.6155,-6.606,-6.6141,-6.6195,-6.6204,-6.622,-6.6139,-6.6267,-6.651,-6.6536,-6.6239,-6.6236,-6.6233,0,-6.4547,-6.4808,-6.5001,-6.5075,-6.5264,-6.5353,-6.5435,-6.557,-6.5667,-6.5807,-6.5869,-6.6027,-6.6112,-6.6231,-6.6305,-6.625,-6.653,-6.6469,-6.6569,-6.6567,-6.6622,-6.6617,-6.6876,-6.6683,-6.6683,-6.6682,-6.6682,0,-6.476,-6.4921,-6.5051,-6.5169,-6.535,-6.5429,-6.5604,-6.5687,-6.5807,-6.5939,-6.5977,-6.6099,-6.6193,-6.6327,-6.6387,-6.6567,-6.6606,-6.6645,-6.6658,-6.6639,-6.6633,-6.6689,-6.6675,-6.669,-6.6688,-6.6687,-6.6685,0,-6.4909,-6.5003,-6.5214,-6.5377,-6.5422,-6.5547,-6.5685,-6.5799,-6.5875,-6.6041,-6.6085,-6.6202,-6.6363,-6.645,-6.6651,-6.6691,-6.6891,-6.69,-6.6844,-6.6848,-6.6941,-6.6929,-6.7241,-6.7284,-6.7067,-6.7069,-6.7071,0,-6.5036,-6.5161,-6.5337,-6.5429,-6.5514,-6.5662,-6.5762,-6.5845,-6.5946,-6.6114,-6.6206,-6.637,-6.6504,-6.6758,-6.686,-6.7013,-6.7022,-6.7121,-6.7045,-6.7021,-6.7017,-6.7006,-6.7017,-6.7132,-6.7134,-6.7136,-6.7137,0,-6.5249,-6.529,-6.5433,-6.5593,-6.5711,-6.584,-6.5967,-6.604,-6.6143,-6.6255,-6.642,-6.6524,-6.673,-6.6889,-6.7051,-6.7133,-6.715,-6.7161,-6.7191,-6.717,-6.713,-6.7148,-6.6874,-6.7152,-6.7151,-6.7149,-6.7149,-6.7148,-6.5388,-6.5498,-6.564,-6.5797,-6.5902,-6.602,-6.6134,-6.6225,-6.6365,-6.654,-6.6581,-6.6753,-6.6888,-6.7106,-6.7193,-6.7327,-6.7308,-6.7353,-6.7363,-6.7372,-6.7373,-6.7114,-6.7358,-6.7357,-6.7357,-6.7357,-6.7357,0,-6.5598,-6.5691,-6.5836,-6.6013,-6.6136,-6.6147,-6.6288,-6.6389,-6.6542,-6.6667,-6.6799,-6.6987,-6.7142,-6.7257,-6.7414,-6.7499,-6.7511,-6.7537,-6.7529,-6.7547,-6.7384,-6.7339,-6.7525,-6.7525,-6.7525,-6.7525,-6.7525,-6.7525,-6.5722,-6.5909,-6.5966,-6.6204,-6.6296,-6.6467,-6.6546,-6.6654,-6.6754,-6.6963,-6.7093,-6.7167,-6.7287,-6.7454,-6.7595,-6.7625,-6.7679,-6.7703,-6.7732,-6.7577,-6.7559,-6.7541,-6.7499,-6.7716,-6.7716,-6.7883,-6.7885,-6.7886]},{"header":{"parameterUnit":"m.s-1","parameterCategory":1,"la1":30.2991,"la2":30.254,"lo1":-89.0895,"lo2":-89.0444,"dx":0.0017,"dy":0.0017,"nx":28,"ny":28,"refTime":"2022-11-15T09:00:00:Z","depth":0,"parameterNumber":3,"parameterNumberName":"V-component_of_WINDS"},"data":[0,0,0,0,0,0,0,0,0,0,0,0,0,0,0,0,0,0,0,0,0,0,0,0,0,0,0,0,0,0,0,0,0,0,0,0,0,0,0,0,0,0,0,0,0,0,0,0,0,0,0,0,0,0,0,0,0,0,2.2294,2.2297,0,2.2501,2.2504,2.2506,2.2456,2.2452,2.2448,2.2444,2.2659,2.2668,2.2678,0,0,0,0,0,0,0,0,0,0,0,0,0,2.1861,2.1869,2.2294,2.2297,2.2299,2.2501,2.2504,2.2507,2.2457,2.2452,2.2447,2.2442,2.2656,2.2667,2.2678,0,0,0,0,0,0,0,0,0,0,0,0,0,2.2057,2.1872,2.2294,2.2299,2.2301,2.25,2.2504,2.2507,2.2458,2.2451,2.2445,2.244,2.2652,2.2666,2.268,2.2888,0,0,2.2723,2.273,0,0,0,0,0,0,0,0,2.2046,2.2073,2.2295,2.2299,2.2302,2.2446,2.243,2.2635,2.2459,2.2398,2.2444,2.2437,2.2593,2.2612,2.2664,2.2898,2.2907,2.2725,2.2733,2.2739,2.2743,0,0,0,0,0,0,0,2.2032,2.2063,2.2376,2.2299,2.2303,2.2292,2.2313,2.2468,2.2527,2.2403,2.24,2.2425,2.2594,2.2651,2.2669,2.2911,2.2724,2.2737,2.2746,2.2751,2.3333,2.3339,0,0,0,0,0,0,2.2015,2.2052,2.237,2.2382,2.2156,2.2305,2.2329,2.2406,2.2525,2.2538,2.243,2.2422,2.2629,2.2652,2.2676,2.2933,2.2739,2.2753,2.2761,2.3326,2.3334,2.3342,0,0,0,0,0,0,2.2006,2.2044,2.2361,2.2217,2.2256,2.2319,2.2406,2.2413,2.247,2.2546,2.2556,2.2477,2.2625,2.2656,2.2837,2.294,2.2759,2.2772,2.3318,2.3328,2.3338,2.3446,0,0,0,0,0,0,2.1994,2.2041,2.2119,2.2219,2.2264,2.2518,2.2412,2.2422,2.2494,2.2486,2.2592,2.2604,2.2623,2.2816,2.2851,2.2956,2.2783,2.3309,2.3322,2.3335,2.3434,2.3459,2.348,0,0,0,0,0,2.1979,2.2141,2.2124,2.2162,2.2363,2.2523,2.255,2.2567,2.2502,2.2584,2.2633,2.2601,2.2922,2.2835,2.2874,2.2985,2.3302,2.3319,2.3334,2.3423,2.3454,2.348,0,0,0,0,0,0,2.2052,2.2154,2.2136,2.2335,2.2421,2.2514,2.2617,2.2598,2.2705,2.2693,2.2711,2.2735,2.2922,2.297,2.2872,2.3196,2.3103,2.3127,2.3158,2.3188,2.321,2.3197,2.2795,0,0,0,0,0,2.2091,2.2211,2.2294,2.2461,2.2506,2.2554,2.2624,2.2631,2.2721,2.2757,2.2819,2.291,2.3031,2.3111,2.3227,2.3439,2.3465,2.3534,2.3558,2.3576,2.3599,2.3721,2.3755,2.3393,2.3393,2.3392,0,0,2.2173,2.2244,2.2319,2.2478,2.2546,2.2673,2.2585,2.2721,2.2817,2.2778,2.2955,2.3003,2.3105,2.3305,2.3395,2.3351,2.3704,2.3596,2.3611,2.3623,2.3741,2.3775,2.3806,2.3403,2.3401,2.34,0,0,2.239,2.2453,2.2603,2.2673,2.2776,2.2808,2.2843,2.2941,2.2973,2.3149,2.3125,2.3238,2.3446,2.3522,2.3587,2.3836,2.3813,2.3873,2.3997,2.4116,2.4145,2.417,2.4265,2.4298,2.3893,2.3894,2.3894,0,2.2481,2.2669,2.2682,2.2823,2.2896,2.2866,2.302,2.3087,2.3224,2.3276,2.3224,2.3488,2.3553,2.3773,2.3834,2.3886,2.3932,2.3863,2.4139,2.4165,2.4189,2.428,2.4315,2.3901,2.39,2.3899,2.3899,0,2.2778,2.291,2.3018,2.3153,2.3237,2.3383,2.3421,2.3505,2.3504,2.3542,2.3726,2.3804,2.3938,2.3989,2.3988,2.4211,2.4181,2.4133,2.4042,2.423,2.4317,2.4351,2.3911,2.3908,2.3906,2.3905,0,0,2.3049,2.3189,2.323,2.3293,2.3405,2.3509,2.3655,2.3786,2.3861,2.3955,2.4083,2.426,2.4219,2.4293,2.4301,2.4405,2.4605,2.4346,2.4349,2.4397,2.4863,2.4902,2.4942,2.4588,2.4595,2.46,2.4856,0,2.3281,2.3539,2.3556,2.3791,2.3917,2.3891,2.4019,2.4104,2.4143,2.4257,2.43,2.4429,2.436,2.4407,2.4507,2.4559,2.47,2.454,2.4712,2.4718,2.4694,2.4986,2.5028,2.5266,2.4889,2.4895,2.4899,0,2.3586,2.3693,2.3941,2.4041,2.4094,2.4209,2.4333,2.444,2.4537,2.4559,2.4644,2.4638,2.4792,2.4691,2.4907,2.4799,2.4869,2.4906,2.4915,2.4937,2.4824,2.5022,2.5341,2.538,2.4951,2.4947,2.4943,0,2.3768,2.3972,2.4148,2.4202,2.4321,2.4404,2.4457,2.4548,2.4627,2.4735,2.4788,2.4912,2.4982,2.508,2.511,2.5032,2.5327,2.5227,2.5355,2.5355,2.5423,2.5419,2.5764,2.5457,2.5457,2.5456,2.5455,0,2.4029,2.4184,2.4232,2.4342,2.4515,2.4533,2.4705,2.4754,2.4835,2.4956,2.4939,2.5053,2.5082,2.5203,2.5226,2.5406,2.5435,2.5461,2.5467,2.5467,2.5465,2.5518,2.5505,2.5465,2.5463,2.5462,2.546,0,2.4264,2.4301,2.4493,2.459,2.4619,2.4743,2.4828,2.4935,2.4971,2.5125,2.5162,2.5221,2.5362,2.54,2.5568,2.5585,2.5798,2.5785,2.5766,2.5768,2.5897,2.5887,2.6294,2.6351,2.5999,2.6003,2.6005,0,2.4431,2.455,2.466,2.474,2.4798,2.4925,2.5006,2.5029,2.5115,2.5236,2.533,2.5468,2.5582,2.5809,2.5869,2.5999,2.5993,2.6127,2.6013,2.6011,2.6004,2.6,2.6015,2.6151,2.6154,2.6157,2.616,0,2.4727,2.4741,2.4858,2.4984,2.5081,2.5181,2.5277,2.5343,2.5379,2.5477,2.5622,2.5709,2.5882,2.6023,2.6155,2.6213,2.6196,2.6194,2.6232,2.6237,2.6224,2.624,2.5833,2.6186,2.6184,2.6182,2.618,2.6179,2.4938,2.5045,2.5141,2.5273,2.5348,2.5438,2.5545,2.5596,2.5717,2.586,2.5865,2.6024,2.6122,2.6298,2.6363,2.6489,2.645,2.6503,2.6517,2.6532,2.6547,2.6198,2.6512,2.6512,2.6511,2.651,2.651,0,2.5239,2.53,2.5421,2.5557,2.5663,2.5633,2.5739,2.583,2.597,2.6061,2.6174,2.6343,2.6479,2.655,2.6687,2.6775,2.6771,2.6811,2.6809,2.6824,2.657,2.6528,2.6813,2.6813,2.6812,2.6812,2.6812,2.6812,2.5409,2.559,2.5616,2.5835,2.5894,2.605,2.6113,2.6199,2.6273,2.6462,2.6576,2.662,2.6706,2.6849,2.6975,2.6992,2.7047,2.7093,2.7107,2.6871,2.684,2.6811,2.6771,2.7103,2.7103,2.7351,2.7353,2.7355]}]]